When you browse on this site, cookies collect data to enhance your experience and personalize the content and advertising you see.
Visit our Privacy Policy to learn more. By continuing to use the site, you agree to this use of cookies and data.
  • In Hungary
  • List of Countries
  • For 7 days
  • Water Temperature
  • Satellite Maps
  • Weather Map
  • News
  • Weather Widgets
  • user-avatar
    Login

    Hourly Weather Sestriere

    Today, 18 June, Tuesday

    Time Temperature Precipitation Wind Pressure Humidity
    00:00 +7°C° 0 mm 1 mps 584 mmHg 89%
    01:00 +6°C° 0 mm 1 mps 584 mmHg 89%
    02:00 +6°C° 0 mm 1 mps 584 mmHg 90%
    03:00 +6°C° 0 mm 1 mps 584 mmHg 90%
    04:00 +7°C° 0 mm 1 mps 584 mmHg 88%
    05:00 +8°C° 0 mm 0 mps 585 mmHg 86%
    06:00 +9°C° 0 mm 0 mps 586 mmHg 84%
    07:00 +12°C° 0 mm 1 mps 587 mmHg 77%
    08:00 +13°C° 0 mm 1 mps 587 mmHg 69%
    09:00 +15°C° 0 mm 1 mps 588 mmHg 61%
    10:00 +15°C° 0.2 mm 1 mps 588 mmHg 60%
    11:00 +16°C° 0.2 mm 2 mps 588 mmHg 59%
    12:00 +16°C° 0.2 mm 2 mps 588 mmHg 57%
    13:00 +16°C° 0.5 mm 2 mps 588 mmHg 58%
    14:00 +16°C° 0.5 mm 1 mps 588 mmHg 59%
    15:00 +16°C° 0.5 mm 1 mps 587 mmHg 59%
    16:00 +15°C° 0.4 mm 1 mps 587 mmHg 63%
    17:00 +14°C° 0.4 mm 1 mps 587 mmHg 67%
    18:00 +13°C° 0.4 mm 1 mps 586 mmHg 71%
    19:00 +12°C° 0.2 mm 1 mps 585 mmHg 75%
    20:00 +10°C° 0.2 mm 1 mps 585 mmHg 79%
    21:00 +8°C° 0.2 mm 1 mps 584 mmHg 83%
    22:00 +8°C° 0.1 mm 1 mps 584 mmHg 84%
    23:00 +7°C° 0.1 mm 1 mps 584 mmHg 84%

    Tomorrow, 19 June, Wednesday

    Time Temperature Precipitation Wind Pressure Humidity
    00:00 +7°C° 0.1 mm 1 mps 583 mmHg 85%
    01:00 +6°C° 0 mm 1 mps 583 mmHg 85%
    02:00 +6°C° 0 mm 1 mps 583 mmHg 85%
    03:00 +6°C° 0 mm 1 mps 582 mmHg 85%
    04:00 +8°C° 0 mm 1 mps 583 mmHg 80%
    05:00 +9°C° 0 mm 1 mps 584 mmHg 76%
    06:00 +11°C° 0 mm 1 mps 585 mmHg 71%
    07:00 +13°C° 0 mm 1 mps 586 mmHg 62%
    08:00 +15°C° 0 mm 1 mps 587 mmHg 53%
    09:00 +16°C° 0 mm 1 mps 587 mmHg 44%
    10:00 +17°C° 0.2 mm 2 mps 587 mmHg 44%
    11:00 +17°C° 0.2 mm 2 mps 587 mmHg 44%
    12:00 +17°C° 0.2 mm 3 mps 587 mmHg 44%
    13:00 +17°C° 0.3 mm 3 mps 587 mmHg 43%
    14:00 +17°C° 0.3 mm 3 mps 587 mmHg 43%
    15:00 +17°C° 0.3 mm 3 mps 587 mmHg 43%
    16:00 +16°C° 0.1 mm 3 mps 586 mmHg 49%
    17:00 +15°C° 0.1 mm 2 mps 586 mmHg 54%
    18:00 +14°C° 0.1 mm 1 mps 585 mmHg 59%
    19:00 +12°C° 0 mm 1 mps 585 mmHg 63%
    20:00 +10°C° 0 mm 1 mps 584 mmHg 68%
    21:00 +8°C° 0 mm 1 mps 583 mmHg 72%
    22:00 +8°C° 0 mm 1 mps 583 mmHg 71%
    23:00 +8°C° 0 mm 1 mps 583 mmHg 71%

    Day after tomorrow, 20 June, Thursday

    Time Temperature Precipitation Wind Pressure Humidity
    00:00 +7°C° 0 mm 1 mps 583 mmHg 71%
    01:00 +7°C° 0 mm 1 mps 582 mmHg 71%
    02:00 +6°C° 0 mm 1 mps 582 mmHg 71%
    03:00 +6°C° 0 mm 1 mps 582 mmHg 70%
    04:00 +8°C° 0 mm 1 mps 583 mmHg 66%
    05:00 +9°C° 0 mm 1 mps 583 mmHg 62%
    06:00 +11°C° 0 mm 1 mps 584 mmHg 57%
    07:00 +13°C° 0 mm 1 mps 585 mmHg 52%
    08:00 +14°C° 0 mm 2 mps 586 mmHg 47%
    09:00 +16°C° 0 mm 2 mps 587 mmHg 42%
    10:00 +16°C° 0.2 mm 2 mps 587 mmHg 44%
    11:00 +16°C° 0.2 mm 3 mps 587 mmHg 46%
    12:00 +17°C° 0.2 mm 3 mps 587 mmHg 48%
    13:00 +16°C° 0.3 mm 3 mps 587 mmHg 50%
    14:00 +16°C° 0.3 mm 3 mps 586 mmHg 52%
    15:00 +16°C° 0.3 mm 2 mps 586 mmHg 54%
    16:00 +15°C° 0.4 mm 2 mps 586 mmHg 59%
    17:00 +14°C° 0.4 mm 2 mps 586 mmHg 64%
    18:00 +13°C° 0.4 mm 1 mps 585 mmHg 70%
    19:00 +12°C° 0.1 mm 1 mps 585 mmHg 75%
    20:00 +10°C° 0.1 mm 1 mps 584 mmHg 80%
    21:00 +9°C° 0.1 mm 1 mps 584 mmHg 85%
    22:00 +8°C° 0 mm 1 mps 583 mmHg 86%
    23:00 +8°C° 0 mm 1 mps 583 mmHg 87%

    21 June, Friday

    Time Temperature Precipitation Wind Pressure Humidity
    00:00 +7°C° 0 mm 1 mps 583 mmHg 89%
    01:00 +7°C° 0 mm 1 mps 583 mmHg 88%
    02:00 +6°C° 0 mm 1 mps 582 mmHg 88%
    03:00 +6°C° 0 mm 1 mps 582 mmHg 88%
    04:00 +7°C° 0 mm 1 mps 583 mmHg 84%
    05:00 +9°C° 0 mm 1 mps 584 mmHg 79%
    06:00 +10°C° 0 mm 1 mps 585 mmHg 75%
    07:00 +12°C° 0 mm 1 mps 586 mmHg 66%
    08:00 +14°C° 0 mm 1 mps 587 mmHg 58%
    09:00 +15°C° 0 mm 1 mps 588 mmHg 49%
    10:00 +16°C° 0.2 mm 1 mps 587 mmHg 50%
    11:00 +16°C° 0.2 mm 2 mps 587 mmHg 51%
    12:00 +16°C° 0.2 mm 2 mps 587 mmHg 53%
    13:00 +16°C° 0.8 mm 2 mps 587 mmHg 56%
    14:00 +15°C° 0.8 mm 2 mps 587 mmHg 60%
    15:00 +15°C° 0.8 mm 1 mps 586 mmHg 64%
    16:00 +13°C° 1 mm 1 mps 586 mmHg 70%
    17:00 +12°C° 1 mm 1 mps 585 mmHg 76%
    18:00 +11°C° 1 mm 1 mps 585 mmHg 83%
    19:00 +10°C° 0.3 mm 1 mps 584 mmHg 84%
    20:00 +9°C° 0.3 mm 1 mps 584 mmHg 85%
    21:00 +8°C° 0.3 mm 1 mps 584 mmHg 86%
    22:00 +7°C° 0.1 mm 1 mps 584 mmHg 86%
    23:00 +7°C° 0.1 mm 1 mps 584 mmHg 86%

    22 June, Saturday

    Time Temperature Precipitation Wind Pressure Humidity
    00:00 +7°C° 0.1 mm 1 mps 583 mmHg 86%
    01:00 +6°C° 0 mm 1 mps 583 mmHg 86%
    02:00 +6°C° 0 mm 1 mps 583 mmHg 87%
    03:00 +6°C° 0 mm 1 mps 583 mmHg 87%
    04:00 +6°C° 0 mm 0 mps 584 mmHg 83%
    05:00 +8°C° 0 mm 0 mps 585 mmHg 79%
    06:00 +9°C° 0 mm 0 mps 585 mmHg 75%
    07:00 +11°C° 0 mm 0 mps 586 mmHg 69%
    08:00 +13°C° 0 mm 1 mps 587 mmHg 62%
    09:00 +15°C° 0 mm 1 mps 588 mmHg 55%
    10:00 +15°C° 0.2 mm 1 mps 588 mmHg 55%
    11:00 +15°C° 0.2 mm 2 mps 588 mmHg 55%
    12:00 +16°C° 0.2 mm 2 mps 588 mmHg 56%
    13:00 +15°C° 0.4 mm 2 mps 588 mmHg 57%
    14:00 +15°C° 0.4 mm 2 mps 587 mmHg 59%
    15:00 +15°C° 0.4 mm 1 mps 587 mmHg 60%
    16:00 +14°C° 0.3 mm 1 mps 587 mmHg 65%
    17:00 +14°C° 0.3 mm 1 mps 587 mmHg 69%
    18:00 +13°C° 0.3 mm 1 mps 586 mmHg 74%
    19:00 +11°C° 0.1 mm 1 mps 586 mmHg 78%
    20:00 +10°C° 0.1 mm 1 mps 585 mmHg 83%
    21:00 +8°C° 0.1 mm 1 mps 585 mmHg 87%
    22:00 +8°C° 0 mm 1 mps 585 mmHg 87%
    23:00 +8°C° 0 mm 1 mps 584 mmHg 87%

    23 June, Sunday

    Time Temperature Precipitation Wind Pressure Humidity
    00:00 +8°C° 0 mm 1 mps 584 mmHg 86%
    01:00 +7°C° 0 mm 1 mps 584 mmHg 85%
    02:00 +7°C° 0 mm 1 mps 584 mmHg 84%
    03:00 +6°C° 0 mm 0 mps 584 mmHg 83%
    04:00 +7°C° 0 mm 0 mps 585 mmHg 78%
    05:00 +8°C° 0 mm 0 mps 586 mmHg 74%
    06:00 +10°C° 0 mm 0 mps 587 mmHg 70%
    07:00 +13°C° 0 mm 1 mps 587 mmHg 63%
    08:00 +15°C° 0 mm 1 mps 588 mmHg 56%
    09:00 +16°C° 0 mm 1 mps 589 mmHg 49%
    10:00 +17°C° 0.1 mm 2 mps 589 mmHg 50%
    11:00 +17°C° 0.1 mm 2 mps 590 mmHg 51%
    12:00 +18°C° 0.1 mm 2 mps 590 mmHg 53%
    13:00 +18°C° 0.2 mm 2 mps 590 mmHg 54%
    14:00 +18°C° 0.2 mm 2 mps 589 mmHg 56%
    15:00 +18°C° 0.2 mm 2 mps 589 mmHg 58%
    16:00 +18°C° 0.1 mm 1 mps 589 mmHg 65%
    17:00 +16°C° 0.1 mm 1 mps 589 mmHg 71%
    18:00 +15°C° 0.1 mm 1 mps 588 mmHg 77%
    19:00 +14°C° 0 mm 1 mps 588 mmHg 81%
    20:00 +12°C° 0 mm 1 mps 588 mmHg 86%
    21:00 +11°C° 0 mm 1 mps 587 mmHg 90%
    22:00 +11°C° 0 mm 1 mps 587 mmHg 90%
    23:00 +10°C° 0 mm 1 mps 587 mmHg 90%
    Show more